Regional Weather Roundup
Issued by NWS Spokane, WA

Home | Current Version | Previous Version | Text Only | Print | Product List | Glossary On
Versions: 1 2 3 4 5 6 7 8 9 10 11 12 13 14 15 16 17 18 19 20 21 22 23 24 25 26 27 28 29 30 31 32 33 34 35 36 37 38 39 40 41 42 43 44 45 46 47 48 49 50
000
NZUS01 KOTX 021910
RWROTX
EASTERN WASHINGTON/NORTHERN IDAHO ROUNDUP
NATIONAL WEATHER SERVICE, SPOKANE WA
1200 PM PDT TUE SEP 02 2014

Note: "fair" indicated few or no clouds below 12,000 feet with no
significant weather and/or obstructions to visibility.

...NORTHEAST WASHINGTON AND NORTHERN IDAHO PANHANDLE...

CITY           SKY/WX    TMP DP  RH WIND       PRES   REMARKS
SPOKANE INTL   PTSUNNY   68  43  40 SW16      29.81F
SPOKANE DOWNTO MOSUNNY   73  43  33 SW12      29.81F
COEUR D ALENE  CLOUDY    70  43  37 SW7       29.81F
DEER PARK      MOSUNNY   70  41  34 S12G21    29.81F
SANDPOINT      MOSUNNY   70  45  40 SW12      29.81F

...SOUTHEAST WASHINGTON AND SOUTHERN IDAHO PANHANDLE...

CITY           SKY/WX    TMP DP  RH WIND       PRES   REMARKS
WALLA WALLA    SUNNY     75  50  41 W15       29.83F
PULLMAN/MOSCOW SUNNY     71  46  40 SW14G25   29.86F
LEWISTON       SUNNY     73  44  35 VRB5      29.80F
LOWELL           N/A     73  48  41 CALM      29.81F

...COLUMBIA BASIN...

CITY           SKY/WX    TMP DP  RH WIND       PRES   REMARKS
EPHRATA        SUNNY     77  43  29 VRB3      29.76F
MOSES LAKE     SUNNY     75  45  34 S8        29.78F
TRI CITIES     SUNNY     74  48  39 VRB6      29.80F
HERMISTON      SUNNY     77  52  41 W15G22    29.80F
PENDLETON      SUNNY     75  49  39 W15       29.82F

...EAST SLOPES CASCADES...

CITY           SKY/WX    TMP DP  RH WIND       PRES   REMARKS
THE DALLES     SUNNY     76  48  37 NW21G29   29.83F
YAKIMA         SUNNY     75  46  35 S8        29.80F
ELLENSBURG     SUNNY     73  46  38 NW24      29.81F
WENATCHEE      SUNNY     76  41  28 NW8       29.77F
OMAK           PTSUNNY   72  41  32 SW3       29.76F

...SOUTHERN BRITISH COLUMBIA...

CITY           SKY/WX    TMP DP  RH WIND       PRES   REMARKS
CRANBROOK      PTSUNNY   63  43  48 S8        29.78F

...WESTERN MONTANA...

CITY           SKY/WX    TMP DP  RH WIND       PRES   REMARKS
MISSOULA       SUNNY     70  42  36 CALM      29.85F

...NEIGHBORING CITIES...

CITY           SKY/WX    TMP DP  RH WIND       PRES   REMARKS
SEATTLE        PTSUNNY   64  56  75 SW13      29.91F
CALGARY        LGT RAIN  55  43  62 NE6       29.78R



USA.gov is the U.S. government's official web portal to all federal, state and local government web resources and services.